DW0479 Weather Reports


Display with metric or nautical units.
time (UTC)temp
F
wind
direction
speed
MPH
gust
MPH
rain 1hr
in
rain 24hr
in
rain mn
in
humidity
%
barometer
mb
20260505030428 68 82 1.0 4.0 0.00 0.00 0.00 81 1016.2
20260505025428 69 80 1.0 3.0 0.00 0.00 0.00 80 1016.2
20260505024427 69 81 1.0 4.0 0.00 0.00 0.00 79 1016.2
20260505023427 70 81 2.0 5.0 0.00 0.00 0.00 78 1016.1
20260505022420 70 94 2.0 4.0 0.00 0.00 0.00 78 1016.2
20260505021902 71 81 3.0 8.0 0.00 0.00 0.00 76 1016.0
20260505020419 71 100 3.0 9.0 0.00 0.00 0.00 76 1016.1
20260505015408 71 87 3.0 5.0 0.00 0.00 0.00 76 1016.0
20260505014402 71 67 2.0 4.0 0.00 0.00 0.00 75 1016.0
20260505013400 71 108 3.0 8.0 0.00 0.00 0.00 74 1015.8
20260505012350 71 85 2.0 5.0 0.00 0.00 0.00 73 1015.7
20260505011355 72 104 2.0 6.0 0.00 0.00 0.00 73 1015.5
20260505010344 72 89 3.0 9.0 0.00 0.00 0.00 72 1015.6
20260505005341 73 102 4.0 8.0 0.00 0.00 0.00 70 1015.6
20260505004338 73 75 3.0 8.0 0.00 0.00 0.00 69 1015.6
20260505003341 73 88 3.0 9.0 0.00 0.00 0.00 69 1015.4
20260505002334 74 113 4.0 10.0 0.00 0.00 0.00 68 1015.1
20260505001335 74 116 5.0 10.0 0.00 0.00 0.00 67 1015.0
20260505000815 75 109 6.0 13.0 0.00 0.00 0.00 66 1015.1
20260504235829 75 42 5.0 11.0 0.00 0.00 0.00 65 1015.0
20260504234322 76 98 4.0 13.0 0.00 0.00 0.00 64 1014.7
20260504233319 76 93 6.0 13.0 0.00 0.00 0.00 64 1014.5
20260504232321 77 106 6.0 11.0 0.00 0.00 0.00 63 1014.6
20260504231759 77 125 6.0 13.0 0.00 0.00 0.00 62 1014.5
20260504231237 78 90 4.0 13.0 0.00 0.00 0.00 61 1014.5
20260504225322 78 96 6.0 16.0 0.00 0.00 0.00 61 1014.5
20260504224322 78 120 7.0 17.0 0.00 0.00 0.00 61 1014.6
20260504223317 78 106 6.0 15.0 0.00 0.00 0.00 61 1014.7
20260504222318 78 113 7.0 15.0 0.00 0.00 0.00 60 1014.6
20260504221317 80 94 8.0 17.0 0.00 0.00 0.00 58 1014.5
20260504220317 79 121 8.0 17.0 0.00 0.00 0.00 59 1014.4
20260504215319 80 89 7.0 16.0 0.00 0.00 0.00 57 1014.5
20260504214316 80 121 7.0 17.0 0.00 0.00 0.00 56 1014.4
20260504213316 80 64 7.0 15.0 0.00 0.00 0.00 59 1014.4
20260504212316 81 112 8.0 16.0 0.00 0.00 0.00 57 1014.3
20260504211315 82 102 8.0 16.0 0.00 0.00 0.00 55 1014.4
20260504210315 81 99 7.0 15.0 0.00 0.00 0.00 56 1014.4
20260504205313 81 129 7.0 14.0 0.00 0.00 0.00 57 1014.4
20260504204314 81 115 8.0 16.0 0.00 0.00 0.00 56 1014.5
20260504203316 82 95 8.0 15.0 0.00 0.00 0.00 54 1014.5
20260504202300 81 89 7.0 16.0 0.00 0.00 0.00 56 1014.6
20260504201740 82 116 8.0 15.0 0.00 0.00 0.00 54 1014.7
20260504200257 83 92 8.0 16.0 0.00 0.00 0.00 54 1014.7
20260504195258 83 103 8.0 18.0 0.00 0.00 0.00 54 1014.9
20260504194257 81 94 7.0 18.0 0.00 0.00 0.00 56 1015.0
20260504193258 81 89 7.0 17.0 0.00 0.00 0.00 55 1015.0
20260504192258 81 118 7.0 18.0 0.00 0.00 0.00 55 1015.1
20260504191259 81 108 9.0 17.0 0.00 0.00 0.00 55 1015.2
20260504190258 83 102 7.0 16.0 0.00 0.00 0.00 53 1015.3
20260504185258 83 109 6.0 12.0 0.00 0.00 0.00 53 1015.4
20260504184258 84 127 6.0 16.0 0.00 0.00 0.00 52 1015.7
20260504183257 84 84 6.0 14.0 0.00 0.00 0.00 52 1015.6
20260504182259 81 123 7.0 16.0 0.00 0.00 0.00 56 1015.9
20260504181258 82 116 6.0 16.0 0.00 0.00 0.00 54 1015.9
20260504180731 82 138 6.0 14.0 0.00 0.00 0.00 54 1016.1
20260504175259 83 64 6.0 17.0 0.00 0.00 0.00 53 1016.2
20260504174734 81 101 5.0 12.0 0.00 0.00 0.00 54 1016.2
20260504173249 81 50 5.0 13.0 0.00 0.00 0.00 55 1016.2
20260504172244 82 107 6.0 13.0 0.00 0.00 0.00 53 1016.3
20260504171233 84 46 7.0 16.0 0.00 0.00 0.00 51 1016.5
20260504170231 84 129 7.0 14.0 0.00 0.00 0.00 49 1016.6
20260504160215 82 123 7.0 13.0 0.00 0.00 0.00 54 1017.1
20260504150214 82 54 7.0 16.0 0.00 0.00 0.00 55 1017.2
20260504141210 78 29 8.0 15.0 0.00 0.00 0.00 63 1017.1
20260504140210 78 19 7.0 18.0 0.00 0.00 0.00 63 1017.0
20260504130159 73 56 6.0 13.0 0.00 0.00 0.00 72 1016.7
20260504120151 68 40 4.0 9.0 0.00 0.00 0.00 83 1016.4
20260504110144 65 26 4.0 8.0 0.00 0.00 0.00 88 1015.8
20260504100142 65 350 3.0 5.0 0.00 0.00 0.00 88 1015.4
20260504090120 67 5 4.0 8.0 0.00 0.00 0.00 83 1015.3
20260504081558 68 28 4.0 8.0 0.00 0.00 0.00 84 1015.4
20260504080118 68 350 3.0 9.0 0.00 0.00 0.00 84 1015.6
20260504070119 67 356 3.0 5.0 0.00 0.00 0.00 84 1015.5
20260504060107 68 34 3.0 7.0 0.00 0.00 0.00 81 1015.6
20260504044059 69 52 2.0 5.0 0.00 0.00 0.00 82 1017.1
20260504043100 69 52 2.0 5.0 0.00 0.00 0.00 81 1017.1
20260504042103 69 52 2.0 4.0 0.00 0.00 0.00 81 1017.1
20260504041053 69 52 3.0 5.0 0.00 0.00 0.00 80 1017.1
20260504040531 70 52 2.0 4.0 0.00 0.00 0.00 79 1017.1
20260504035057 69 54 3.0 5.0 0.00 0.00 0.12 80 1017.2
20260504034053 69 54 3.0 4.0 0.00 0.00 0.12 80 1017.1
20260504033056 69 55 2.0 4.0 0.00 0.00 0.12 80 1017.1
20260504032058 69 55 1.0 4.0 0.00 0.00 0.12 80 1017.3
20260504031053 69 55 2.0 4.0 0.00 0.00 0.12 80 1017.1